Time,TemperatureF,DewpointF,PressureIn,WindDirection,WindDirectionDegrees,WindSpeedMPH,WindSpeedGustMPH,Humidity,HourlyPrecipIn,Conditions,Clouds,dailyrainin,SoftwareType,DateUTC
2013-08-06 00:02:00,86.0,70.0,29.57,SE,128,1.0,-999.0,59,0.00,,,0.00,,2013-08-06 05:02:00,
2013-08-06 00:22:00,85.0,71.0,29.57,ESE,121,7.0,-999.0,64,0.00,,,0.00,,2013-08-06 05:22:00,
2013-08-06 00:32:00,84.0,71.0,29.57,SSE,154,2.0,-999.0,66,0.00,,,0.00,,2013-08-06 05:32:00,
2013-08-06 00:43:00,84.0,71.0,29.57,East,98,1.0,-999.0,66,0.00,,,0.00,,2013-08-06 05:43:00,
2013-08-06 00:53:00,84.0,72.0,29.57,ESE,119,0.0,-999.0,67,0.00,,,0.00,,2013-08-06 05:53:00,
2013-08-06 01:22:00,83.0,-99.9,-100.00,SE,141,1.0,-999.0,-999,-99.99,,,-99.99,,2013-08-06 06:22:00,
2013-08-06 01:32:00,83.0,72.0,29.58,South,190,0.0,-999.0,69,0.00,,,0.00,,2013-08-06 06:32:00,
2013-08-06 01:43:00,82.0,-99.9,-100.00,SW,215,1.0,-999.0,-999,-99.99,,,-99.99,,2013-08-06 06:43:00,
2013-08-06 01:52:00,82.0,71.0,29.58,SSE,157,2.0,-999.0,69,0.00,,,0.00,,2013-08-06 06:52:00,
2013-08-06 02:02:00,82.0,-99.9,-100.00,ESE,113,1.0,-999.0,-999,-99.99,,,-99.99,,2013-08-06 07:02:00,
2013-08-06 02:12:00,81.0,70.0,29.58,SE,134,1.0,-999.0,69,0.00,,,0.00,,2013-08-06 07:12:00,
2013-08-06 02:22:00,81.0,70.0,29.57,SE,143,0.0,-999.0,70,0.00,,,0.00,,2013-08-06 07:22:00,
2013-08-06 02:32:00,81.0,70.0,29.57,SE,134,3.0,-999.0,70,0.00,,,0.00,,2013-08-06 07:32:00,
2013-08-06 02:43:00,81.0,70.0,29.57,SSE,153,0.0,-999.0,70,0.00,,,0.00,,2013-08-06 07:43:00,
2013-08-06 02:53:00,81.0,70.0,29.57,SSE,153,0.0,-999.0,70,0.00,,,0.00,,2013-08-06 07:53:00,
2013-08-06 03:02:00,80.0,-99.9,-100.00,SSE,156,1.0,-999.0,-999,-99.99,,,-99.99,,2013-08-06 08:02:00,
2013-08-06 03:11:00,80.0,70.0,29.57,SSE,156,1.0,-999.0,71,0.00,,,0.00,,2013-08-06 08:11:00,
2013-08-06 03:21:00,80.0,70.0,29.57,SE,137,1.0,-999.0,72,0.00,,,0.00,,2013-08-06 08:21:00,
2013-08-06 03:33:00,80.0,70.0,29.57,SE,137,1.0,-999.0,72,0.00,,,0.00,,2013-08-06 08:33:00,
2013-08-06 03:43:00,79.0,70.0,29.58,SE,144,0.0,-999.0,74,0.00,,,0.00,,2013-08-06 08:43:00,
2013-08-06 03:52:00,79.0,70.0,29.58,South,182,2.0,-999.0,74,0.00,,,0.00,,2013-08-06 08:52:00,
2013-08-06 04:01:00,79.0,70.0,29.57,SE,138,1.0,-999.0,75,0.00,,,0.00,,2013-08-06 09:01:00,
2013-08-06 04:11:00,79.0,71.0,29.57,SE,144,0.0,-999.0,76,0.00,,,0.00,,2013-08-06 09:11:00,
2013-08-06 04:22:00,79.0,71.0,29.57,SE,144,0.0,-999.0,76,0.00,,,0.00,,2013-08-06 09:22:00,
2013-08-06 04:32:00,79.0,71.0,29.57,SE,144,0.0,-999.0,76,0.00,,,0.00,,2013-08-06 09:32:00,
2013-08-06 04:43:00,78.0,70.0,29.58,WSW,240,0.0,-999.0,77,0.00,,,0.00,,2013-08-06 09:43:00,
2013-08-06 04:52:00,78.0,70.0,29.58,WSW,240,0.0,-999.0,77,0.00,,,0.00,,2013-08-06 09:52:00,
2013-08-06 05:01:00,78.0,71.0,29.58,SW,221,0.0,-999.0,78,0.00,,,0.00,,2013-08-06 10:01:00,
2013-08-06 05:12:00,78.0,-99.9,-100.00,South,184,0.0,-999.0,-999,-99.99,,,-99.99,,2013-08-06 10:12:00,
2013-08-06 05:22:00,78.0,71.0,29.57,South,190,0.0,-999.0,80,0.00,,,0.00,,2013-08-06 10:22:00,
2013-08-06 05:32:00,78.0,71.0,29.57,South,190,0.0,-999.0,80,0.00,,,0.00,,2013-08-06 10:32:00,
2013-08-06 05:43:00,77.0,71.0,29.58,SW,225,1.0,-999.0,81,0.00,,,0.00,,2013-08-06 10:43:00,
2013-08-06 05:52:00,77.0,71.0,29.58,SW,225,1.0,-999.0,81,0.00,,,0.00,,2013-08-06 10:52:00,
2013-08-06 06:01:00,77.0,71.0,29.58,SW,225,1.0,-999.0,81,0.00,,,0.00,,2013-08-06 11:01:00,
2013-08-06 06:11:00,77.0,71.0,29.58,SW,225,1.0,-999.0,81,0.00,,,0.00,,2013-08-06 11:11:00,
2013-08-06 06:22:00,77.0,71.0,29.58,SSW,192,0.0,-999.0,82,0.00,,,0.00,,2013-08-06 11:22:00,
2013-08-06 06:32:00,77.0,71.0,29.58,South,191,0.0,-999.0,83,0.00,,,0.00,,2013-08-06 11:32:00,
2013-08-06 06:43:00,76.0,70.0,29.58,South,180,1.0,-999.0,83,0.00,,,0.00,,2013-08-06 11:43:00,
2013-08-06 06:53:00,76.0,71.0,29.58,SE,131,0.0,-999.0,84,0.00,,,0.00,,2013-08-06 11:53:00,
2013-08-06 07:01:00,76.0,71.0,29.58,South,169,0.0,-999.0,84,0.00,,,0.00,,2013-08-06 12:01:00,
2013-08-06 07:11:00,76.0,71.0,29.59,SSW,213,0.0,-999.0,84,0.00,,,0.00,,2013-08-06 12:11:00,
2013-08-06 07:22:00,76.0,71.0,29.59,WSW,237,0.0,-999.0,85,0.00,,,0.00,,2013-08-06 12:22:00,
2013-08-06 07:32:00,76.0,71.0,29.59,SSE,163,0.0,-999.0,85,0.00,,,0.00,,2013-08-06 12:32:00,
2013-08-06 07:43:00,76.0,71.0,29.59,SSE,163,0.0,-999.0,85,0.00,,,0.00,,2013-08-06 12:43:00,
2013-08-06 07:52:00,76.0,71.0,29.59,SSE,163,0.0,-999.0,85,0.00,,,0.00,,2013-08-06 12:52:00,
2013-08-06 08:01:00,76.0,71.0,29.59,SW,219,2.0,-999.0,84,0.00,,,0.00,,2013-08-06 13:01:00,
2013-08-06 08:11:00,77.0,71.0,29.60,South,181,0.0,-999.0,83,0.00,,,0.00,,2013-08-06 13:11:00,
2013-08-06 08:22:00,77.0,-99.9,-100.00,South,181,0.0,-999.0,-999,0.00,,,-99.99,,2013-08-06 13:22:00,
2013-08-06 08:32:00,78.0,72.0,29.60,SSW,201,3.0,-999.0,82,0.00,,,0.00,,2013-08-06 13:32:00,
2013-08-06 08:42:00,78.0,72.0,29.60,SSE,165,3.0,-999.0,83,0.00,,,0.00,,2013-08-06 13:42:00,
2013-08-06 08:53:00,78.0,72.0,29.60,South,180,2.0,-999.0,83,0.00,,,0.00,,2013-08-06 13:53:00,
2013-08-06 09:01:00,78.0,72.0,29.60,SE,142,2.0,-999.0,82,0.00,,,0.00,,2013-08-06 14:01:00,
2013-08-06 09:11:00,79.0,73.0,29.60,SW,217,1.0,-999.0,81,0.00,,,0.00,,2013-08-06 14:11:00,
2013-08-06 09:22:00,79.0,72.0,29.60,South,169,1.0,-999.0,79,0.00,,,0.00,,2013-08-06 14:22:00,
2013-08-06 09:32:00,80.0,72.0,29.60,SSW,213,2.0,-999.0,77,0.00,,,0.00,,2013-08-06 14:32:00,
2013-08-06 09:42:00,80.0,72.0,29.60,SSE,167,2.0,-999.0,77,0.00,,,0.00,,2013-08-06 14:42:00,
2013-08-06 10:02:00,81.0,73.0,29.60,SSW,205,3.0,-999.0,76,0.00,,,0.00,,2013-08-06 15:02:00,
2013-08-06 10:11:00,82.0,73.0,29.60,SSW,200,3.0,-999.0,75,0.00,,,0.00,,2013-08-06 15:11:00,
2013-08-06 10:33:00,83.0,73.0,29.60,SSE,158,6.0,-999.0,72,0.00,,,0.00,,2013-08-06 15:33:00,
2013-08-06 10:44:00,84.0,73.0,29.60,SSW,196,2.0,-999.0,70,0.00,,,0.00,,2013-08-06 15:44:00,
2013-08-06 11:02:00,86.0,74.0,29.60,ENE,64,7.0,-999.0,67,0.00,,,0.00,,2013-08-06 16:02:00,
2013-08-06 11:11:00,87.0,74.0,29.60,SSE,152,2.0,-999.0,65,0.00,,,0.00,,2013-08-06 16:11:00,
2013-08-06 11:32:00,87.0,73.0,29.60,ENE,71,1.0,-999.0,64,0.00,,,0.00,,2013-08-06 16:32:00,
2013-08-06 11:42:00,88.0,73.0,29.60,South,179,4.0,-999.0,62,0.00,,,0.00,,2013-08-06 16:42:00,
2013-08-06 12:02:00,89.0,73.0,29.60,SE,124,2.0,-999.0,59,0.00,,,0.00,,2013-08-06 17:02:00,
2013-08-06 12:11:00,89.0,73.0,29.60,SE,124,2.0,-999.0,59,0.00,,,0.00,,2013-08-06 17:11:00,
2013-08-06 12:21:00,90.0,73.0,29.60,SSE,157,2.0,-999.0,58,0.00,,,0.00,,2013-08-06 17:21:00,
2013-08-06 12:32:00,91.0,74.0,29.59,SW,219,4.0,-999.0,57,0.00,,,0.00,,2013-08-06 17:32:00,
2013-08-06 12:43:00,91.0,74.0,29.59,SW,219,4.0,-999.0,57,0.00,,,0.00,,2013-08-06 17:43:00,
2013-08-06 12:52:00,92.0,73.0,29.59,SW,216,2.0,-999.0,55,0.00,,,0.00,,2013-08-06 17:52:00,
2013-08-06 13:01:00,92.0,73.0,29.59,SW,231,2.0,-999.0,54,0.00,,,0.00,,2013-08-06 18:01:00,
2013-08-06 13:11:00,92.0,72.0,29.58,SSE,156,3.0,-999.0,53,0.00,,,0.00,,2013-08-06 18:11:00,
2013-08-06 13:22:00,93.0,73.0,29.58,SE,144,3.0,-999.0,53,0.00,,,0.00,,2013-08-06 18:22:00,
2013-08-06 13:32:00,93.0,73.0,29.58,ESE,113,2.0,-999.0,52,0.00,,,0.00,,2013-08-06 18:32:00,
2013-08-06 13:43:00,93.0,73.0,29.58,ESE,113,2.0,-999.0,52,0.00,,,0.00,,2013-08-06 18:43:00,
2013-08-06 13:52:00,94.0,72.0,29.56,SSE,157,3.0,-999.0,49,0.00,,,0.00,,2013-08-06 18:52:00,
2013-08-06 14:11:00,95.0,72.0,29.56,SE,138,3.0,-999.0,47,0.00,,,0.00,,2013-08-06 19:11:00,
2013-08-06 14:21:00,95.0,71.0,29.55,SSW,201,1.0,-999.0,46,0.00,,,0.00,,2013-08-06 19:21:00,
2013-08-06 14:32:00,95.0,71.0,29.55,SSW,201,1.0,-999.0,46,0.00,,,0.00,,2013-08-06 19:32:00,
2013-08-06 14:42:00,96.0,70.0,29.55,SE,143,4.0,-999.0,43,0.00,,,0.00,,2013-08-06 19:42:00,
2013-08-06 14:52:00,96.0,69.0,29.54,SE,133,1.0,-999.0,42,0.00,,,0.00,,2013-08-06 19:52:00,
2013-08-06 15:01:00,97.0,70.0,29.53,ESE,107,1.0,-999.0,42,0.00,,,0.00,,2013-08-06 20:01:00,
2013-08-06 15:11:00,97.0,70.0,29.53,ESE,107,1.0,-999.0,42,0.00,,,0.00,,2013-08-06 20:11:00,
2013-08-06 15:22:00,98.0,69.0,29.53,South,189,0.0,-999.0,39,0.00,,,0.00,,2013-08-06 20:22:00,
2013-08-06 15:32:00,99.0,69.0,29.52,East,90,7.0,-999.0,38,0.00,,,0.00,,2013-08-06 20:32:00,
2013-08-06 15:44:00,99.0,69.0,29.52,SSW,194,5.0,-999.0,38,0.00,,,0.00,,2013-08-06 20:44:00,
2013-08-06 15:52:00,99.0,68.0,29.52,South,190,3.0,-999.0,37,0.00,,,0.00,,2013-08-06 20:52:00,
2013-08-06 16:01:00,99.0,67.0,29.52,South,176,6.0,-999.0,36,0.00,,,0.00,,2013-08-06 21:01:00,
2013-08-06 16:11:00,99.0,66.0,29.51,SSE,148,2.0,-999.0,35,0.00,,,0.00,,2013-08-06 21:11:00,
2013-08-06 16:22:00,99.0,66.0,29.50,SSW,212,5.0,-999.0,35,0.00,,,0.00,,2013-08-06 21:22:00,
2013-08-06 16:32:00,100.0,67.0,29.49,SE,134,1.0,-999.0,34,0.00,,,0.00,,2013-08-06 21:32:00,
2013-08-06 16:43:00,100.0,66.0,29.49,SSW,200,5.0,-999.0,33,0.00,,,0.00,,2013-08-06 21:43:00,
2013-08-06 16:52:00,101.0,66.0,29.49,SW,217,5.0,-999.0,32,0.00,,,0.00,,2013-08-06 21:52:00,
2013-08-06 17:01:00,101.0,67.0,29.49,SE,146,1.0,-999.0,33,0.00,,,0.00,,2013-08-06 22:01:00,
2013-08-06 17:11:00,100.0,66.0,29.49,South,173,2.0,-999.0,33,0.00,,,0.00,,2013-08-06 22:11:00,
2013-08-06 17:21:00,100.0,65.0,29.48,SE,146,3.0,-999.0,32,0.00,,,0.00,,2013-08-06 22:21:00,
2013-08-06 17:32:00,101.0,66.0,29.48,SSW,204,4.0,-999.0,32,0.00,,,0.00,,2013-08-06 22:32:00,
2013-08-06 17:43:00,101.0,66.0,29.48,SE,145,0.0,-999.0,32,0.00,,,0.00,,2013-08-06 22:43:00,
2013-08-06 17:52:00,101.0,64.0,29.48,South,181,0.0,-999.0,30,0.00,,,0.00,,2013-08-06 22:52:00,
2013-08-06 18:01:00,101.0,65.0,29.47,SSE,161,2.0,-999.0,31,0.00,,,0.00,,2013-08-06 23:01:00,
2013-08-06 18:11:00,101.0,65.0,29.47,SSW,211,3.0,-999.0,31,0.00,,,0.00,,2013-08-06 23:11:00,
2013-08-06 18:22:00,100.0,62.0,29.47,SSE,159,0.0,-999.0,29,0.00,,,0.00,,2013-08-06 23:22:00,
2013-08-06 18:32:00,101.0,64.0,29.47,SE,128,4.0,-999.0,30,0.00,,,0.00,,2013-08-06 23:32:00,
2013-08-06 18:43:00,100.0,64.0,29.46,South,180,2.0,-999.0,31,0.00,,,0.00,,2013-08-06 23:43:00,
2013-08-06 18:52:00,99.0,63.0,29.46,SSW,192,5.0,-999.0,31,0.00,,,0.00,,2013-08-06 23:52:00,
2013-08-06 19:01:00,99.0,63.0,29.46,South,169,4.0,-999.0,31,0.00,,,0.00,,2013-08-07 00:01:00,
2013-08-06 19:11:00,99.0,64.0,29.45,SSE,157,1.0,-999.0,32,0.00,,,0.00,,2013-08-07 00:11:00,
2013-08-06 19:21:00,99.0,64.0,29.45,South,171,0.0,-999.0,32,0.00,,,0.00,,2013-08-07 00:21:00,
2013-08-06 19:32:00,98.0,64.0,29.45,SSW,201,0.0,-999.0,33,0.00,,,0.00,,2013-08-07 00:32:00,
2013-08-06 19:43:00,98.0,64.0,29.45,SSE,159,0.0,-999.0,33,0.00,,,0.00,,2013-08-07 00:43:00,
2013-08-06 19:52:00,97.0,64.0,29.45,SSE,160,3.0,-999.0,34,0.00,,,0.00,,2013-08-07 00:52:00,
2013-08-06 20:01:00,97.0,65.0,29.45,SSE,160,0.0,-999.0,35,0.00,,,0.00,,2013-08-07 01:01:00,
2013-08-06 20:11:00,97.0,66.0,29.45,SE,125,0.0,-999.0,36,0.00,,,0.00,,2013-08-07 01:11:00,
2013-08-06 20:21:00,96.0,65.0,29.46,SE,125,0.0,-999.0,36,0.00,,,0.00,,2013-08-07 01:21:00,
2013-08-06 20:32:00,95.0,65.0,29.46,SE,144,0.0,-999.0,37,0.00,,,0.00,,2013-08-07 01:32:00,
2013-08-06 20:43:00,94.0,64.0,29.46,SE,144,0.0,-999.0,38,0.00,,,0.00,,2013-08-07 01:43:00,
2013-08-06 20:52:00,94.0,64.0,29.46,SE,144,0.0,-999.0,38,0.00,,,0.00,,2013-08-07 01:52:00,
2013-08-06 21:02:00,93.0,64.0,29.47,SE,146,0.0,-999.0,39,0.00,,,0.00,,2013-08-07 02:02:00,
2013-08-06 21:11:00,93.0,65.0,29.47,SE,146,0.0,-999.0,40,0.00,,,0.00,,2013-08-07 02:11:00,
2013-08-06 21:22:00,93.0,65.0,29.47,SE,146,0.0,-999.0,40,0.00,,,0.00,,2013-08-07 02:22:00,
2013-08-06 21:33:00,92.0,65.0,29.47,SE,146,0.0,-999.0,41,0.00,,,0.00,,2013-08-07 02:33:00,
2013-08-06 21:43:00,92.0,66.0,29.48,South,191,0.0,-999.0,43,0.00,,,0.00,,2013-08-07 02:43:00,
2013-08-06 21:53:00,92.0,-99.9,-100.00,SSE,154,0.0,-999.0,-999,-99.99,,,-99.99,,2013-08-07 02:53:00,
2013-08-06 22:01:00,92.0,71.0,29.48,SE,134,3.0,-999.0,50,0.00,,,0.00,,2013-08-07 03:01:00,
2013-08-06 22:11:00,91.0,71.0,29.49,SE,126,1.0,-999.0,52,0.00,,,0.00,,2013-08-07 03:11:00,
2013-08-06 22:23:00,91.0,-99.9,-100.00,SE,138,0.0,-999.0,-999,-99.99,,,-99.99,,2013-08-07 03:23:00,
2013-08-06 22:32:00,91.0,73.0,29.50,ESE,108,3.0,-999.0,55,0.00,,,0.00,,2013-08-07 03:32:00,
2013-08-06 22:43:00,90.0,-99.9,-100.00,SSE,157,0.0,-999.0,-999,-99.99,,,-99.99,,2013-08-07 03:43:00,
2013-08-06 22:52:00,90.0,73.0,29.52,SSE,157,3.0,-999.0,57,0.00,,,0.00,,2013-08-07 03:52:00,
2013-08-06 23:01:00,90.0,73.0,29.52,East,92,6.0,-999.0,57,0.00,,,0.00,,2013-08-07 04:01:00,
2013-08-06 23:11:00,89.0,-99.9,-100.00,ENE,69,5.0,-999.0,-999,0.00,,,-99.99,,2013-08-07 04:11:00,
2013-08-06 23:21:00,89.0,72.0,29.52,ENE,69,5.0,-999.0,58,0.00,,,0.00,,2013-08-07 04:21:00,
2013-08-06 23:33:00,89.0,72.0,29.52,ENE,69,5.0,-999.0,58,0.00,,,0.00,,2013-08-07 04:33:00,
2013-08-06 23:43:00,88.0,72.0,29.54,East,98,10.0,-999.0,59,0.00,,,0.00,,2013-08-07 04:43:00,
2013-08-06 23:52:00,87.0,-99.9,-100.00,South,185,3.0,-999.0,-999,-99.99,,,-99.99,,2013-08-07 04:52:00,